Location: ???????????
(54.5822°N, 39.1075°E)
Time: 02:59:44
(UTC+00:00)

Cosmos 2208 Rocket - Pass Details

Date: 19 May 2025
Orbit: 752 x 801 km, 74.0° (Epoch: 14 June)

Event Time Altitude Azimuth Distance (km) Brightness Sun altitude
Exits shadow 19:14:44 - 197° (SSW) 3,020 6.7 -10.8°
Reaches altitude 10° 19:16:27 10° 195° (SSW) 2,356 6.1 -10.9°
Maximum altitude 19:21:47 71° 113° (ESE) 836 4.0 -11.3°
Drops below altitude 10° 19:27:05 10° 30° (NNE) 2,341 7.0 -11.6°
Sets 19:29:28 0° 29° (NNE) 3,265 7.8 -11.8°
